Regional Weather Roundup
Issued by NWS

Home | Current Version | Previous Version | Text Only | Print | Product List | Glossary Off
Versions: 1 2 3 4 5 6 7 8 9 10 11 12 13 14 15 16 17 18 19 20 21 22 23 24 25 26 27 28 29 30 31 32 33 34 35 36 37 38 39 40 41 42 43 44 45 46 47 48 49 50

000
ASUS44 KMEG 101000
RWRTN
TENNESSEE HOURLY STATE WEATHER ROUNDUP
NATIONAL WEATHER SERVICE MEMPHIS TN
400 AM CST WED FEB 10 2016

TNZ002-004-019-021-049-052-054-088>092-101100-
WEST TENNESSEE

CITY           SKY/WX    TMP DP  RH WIND       PRES   REMARKS
MEMPHIS INTL   CLEAR     27   8  44 N10G17    30.21R WCI  17
NWS MEMPHIS      N/A     24 N/A N/A MISG        N/A
JACKSON        CLEAR     22  10  60 NW13      30.18R WCI  10
DYERSBURG      CLEAR     23   9  54 NW7       30.21R WCI  15
PARIS          PTCLDY    18   9  68 W7        30.14R WCI   8
$$

TNZ008-025-027-028-033-062-065-066-101100-
NORTH MIDDLE TENNESSEE

CITY           SKY/WX    TMP DP  RH WIND       PRES   REMARKS
NASHVILLE      CLOUDY    23  14  68 W5        30.10S WCI  17
CLARKSVILLE    CLOUDY    20  11  68 NW13      30.12R WCI   7
CROSSVILLE     LGT SNOW  15   8  73 NW10      29.98R WCI   2
$$

TNZ061-075-076-078-094-096-097-101100-
SOUTH MIDDLE TENNESSEE

CITY           SKY/WX    TMP DP  RH WIND       PRES   REMARKS
TULLAHOMA      CLOUDY    19  18  93 CALM      30.07S
WINCHESTER     CLOUDY    19  16  86 W3        30.08S
COLUMBIA       CLOUDY    21  19  93 SW7       30.09S WCI  13
SHELBYVILLE    CLOUDY    21  19  93 CALM      30.11R
$$

TNZ017-018-042-046-047-101100-
NORTHEAST TENNESSEE

CITY           SKY/WX    TMP DP  RH WIND       PRES   REMARKS
TRI CITIES     CLOUDY    20  10  65 W15G23    29.92R WCI   6
$$

TNZ012-013-036-069-073-074-101100-
CENTRAL EAST TENNESSEE

CITY           SKY/WX    TMP DP  RH WIND       PRES   REMARKS
KNOXVILLE      FLURRIES  20  12  71 W10       30.02R WCI   9
OAK RIDGE      CLOUDY    20  12  71 VRB5      30.04R WCI  13
GATLINBURG     CLOUDY    19   7  58 W12       30.00R WCI   7
$$

TNZ083-085-099-101100-
SOUTHEAST TENNESSEE

CITY           SKY/WX    TMP DP  RH WIND       PRES   REMARKS
CHATTANOOGA    CLOUDY    23   9  55 NW9       30.10R WCI  13
$$

SKY/WX REPORTED AS FAIR MEANS FEW OR NO CLOUDS BELOW
12 THOUSAND FEET.




USA.gov is the U.S. government's official web portal to all federal, state and local government web resources and services.